Year,Month,Day,Hour,Minute,Value (Times are PST for windspeed in km/hr)
2022,12,09,00,00,0.00
2022,12,09,00,01,0.00
2022,12,09,00,02,0.70
2022,12,09,00,03,0.00
2022,12,09,00,04,0.00
2022,12,09,00,05,0.00
2022,12,09,00,06,1.50
2022,12,09,00,07,0.00
2022,12,09,00,08,0.70
2022,12,09,00,09,2.00
2022,12,09,00,10,0.50
2022,12,09,00,11,1.70
2022,12,09,00,12,1.60
2022,12,09,00,13,0.00
2022,12,09,00,14,0.00
2022,12,09,00,15,0.00
2022,12,09,00,16,0.00
2022,12,09,00,17,0.00
2022,12,09,00,18,0.00
2022,12,09,00,19,0.00
2022,12,09,00,20,0.00
2022,12,09,00,21,0.00
2022,12,09,00,22,0.00
2022,12,09,00,23,0.00
2022,12,09,00,24,0.00
2022,12,09,00,25,0.00
2022,12,09,00,26,0.00
2022,12,09,00,27,0.00
2022,12,09,00,28,0.00
2022,12,09,00,29,0.00
2022,12,09,00,30,0.00
2022,12,09,00,31,0.00
2022,12,09,00,32,0.00
2022,12,09,00,33,0.00
2022,12,09,00,34,0.00
2022,12,09,00,35,0.00
2022,12,09,00,36,0.00
2022,12,09,00,37,0.00
2022,12,09,00,38,0.00
2022,12,09,00,39,0.00
2022,12,09,00,40,0.00
2022,12,09,00,41,0.00
2022,12,09,00,42,0.00
2022,12,09,00,43,0.00
2022,12,09,00,44,0.00
2022,12,09,00,45,0.00
2022,12,09,00,46,0.00
2022,12,09,00,47,0.00
2022,12,09,00,48,0.00
2022,12,09,00,49,0.00
2022,12,09,00,50,0.00
2022,12,09,00,51,0.00
2022,12,09,00,52,0.00
2022,12,09,00,53,0.00
2022,12,09,00,54,0.00
2022,12,09,00,55,0.00
2022,12,09,00,56,0.00
2022,12,09,00,57,0.00
2022,12,09,00,58,0.00
2022,12,09,00,59,0.00
2022,12,09,01,00,0.00
2022,12,09,01,01,0.00
2022,12,09,01,02,0.00
2022,12,09,01,03,0.00
2022,12,09,01,04,0.00
2022,12,09,01,05,0.00
2022,12,09,01,06,0.00
2022,12,09,01,07,0.00
2022,12,09,01,08,0.00
2022,12,09,01,09,0.00
2022,12,09,01,10,1.20
2022,12,09,01,11,0.10
2022,12,09,01,12,1.30
2022,12,09,01,13,3.30
2022,12,09,01,14,4.60
2022,12,09,01,15,2.60
2022,12,09,01,16,3.50
2022,12,09,01,17,2.70
2022,12,09,01,18,4.00
2022,12,09,01,19,0.70
2022,12,09,01,20,0.00
2022,12,09,01,21,0.00
2022,12,09,01,22,3.30
2022,12,09,01,23,1.70
2022,12,09,01,24,1.20
2022,12,09,01,25,0.60
2022,12,09,01,26,0.20
2022,12,09,01,27,2.10
2022,12,09,01,28,0.00
2022,12,09,01,29,0.80
2022,12,09,01,30,0.30
2022,12,09,01,31,2.00
2022,12,09,01,32,2.30
2022,12,09,01,33,1.30
2022,12,09,01,34,0.00
2022,12,09,01,35,0.40
2022,12,09,01,36,0.10
2022,12,09,01,37,0.10
2022,12,09,01,38,2.90
2022,12,09,01,39,1.70
2022,12,09,01,40,3.50
2022,12,09,01,41,0.40
2022,12,09,01,42,0.00
2022,12,09,01,43,0.00
2022,12,09,01,44,0.00
2022,12,09,01,45,0.00
2022,12,09,01,46,0.00
2022,12,09,01,47,0.00
2022,12,09,01,48,0.00
2022,12,09,01,49,0.00
2022,12,09,01,50,0.00
2022,12,09,01,51,0.00
2022,12,09,01,52,0.00
2022,12,09,01,53,0.00
2022,12,09,01,54,0.00
2022,12,09,01,55,0.00
2022,12,09,01,56,0.00
2022,12,09,01,57,0.00
2022,12,09,01,58,0.00
2022,12,09,01,59,0.00
2022,12,09,02,00,0.00
2022,12,09,02,01,0.00
2022,12,09,02,02,0.00
2022,12,09,02,03,0.00
2022,12,09,02,04,0.00
2022,12,09,02,05,0.00
2022,12,09,02,06,0.00
2022,12,09,02,07,0.00
2022,12,09,02,08,0.00
2022,12,09,02,09,0.00
2022,12,09,02,10,0.00
2022,12,09,02,11,0.00
2022,12,09,02,12,0.00
2022,12,09,02,13,0.00
2022,12,09,02,14,0.00
2022,12,09,02,15,0.00
2022,12,09,02,16,0.00
2022,12,09,02,17,0.00
2022,12,09,02,18,0.00
2022,12,09,02,19,0.00
2022,12,09,02,20,0.00
2022,12,09,02,21,0.00
2022,12,09,02,22,0.00
2022,12,09,02,23,0.00
2022,12,09,02,24,0.00
2022,12,09,02,25,0.00
2022,12,09,02,26,0.00
2022,12,09,02,27,0.00
2022,12,09,02,28,0.00
2022,12,09,02,29,0.00
2022,12,09,02,30,0.00
2022,12,09,02,31,0.00
2022,12,09,02,32,0.00
2022,12,09,02,33,0.00
2022,12,09,02,34,0.00
2022,12,09,02,35,0.00
2022,12,09,02,36,0.00
2022,12,09,02,37,0.00
2022,12,09,02,38,0.00
2022,12,09,02,39,0.00
2022,12,09,02,40,0.00
2022,12,09,02,41,0.00
2022,12,09,02,42,0.00
2022,12,09,02,43,0.00
2022,12,09,02,44,0.00
2022,12,09,02,45,0.00
2022,12,09,02,46,0.00
2022,12,09,02,47,0.00
2022,12,09,02,48,0.00
2022,12,09,02,49,0.00
2022,12,09,02,50,0.00
2022,12,09,02,51,0.00
2022,12,09,02,52,0.00
2022,12,09,02,53,0.00
2022,12,09,02,54,0.00
2022,12,09,02,55,0.00
2022,12,09,02,56,0.00
2022,12,09,02,57,0.00
2022,12,09,02,58,0.00
2022,12,09,02,59,0.00
2022,12,09,03,00,0.00
2022,12,09,03,01,0.00
2022,12,09,03,02,0.00
2022,12,09,03,03,0.00
2022,12,09,03,04,0.00
2022,12,09,03,05,0.00
2022,12,09,03,06,0.00
2022,12,09,03,07,0.00
2022,12,09,03,08,0.00
2022,12,09,03,09,0.00
2022,12,09,03,10,0.00
2022,12,09,03,11,0.00
2022,12,09,03,12,0.00
2022,12,09,03,13,0.00
2022,12,09,03,14,0.00
2022,12,09,03,15,0.00
2022,12,09,03,16,0.00
2022,12,09,03,17,0.00
2022,12,09,03,18,0.00
2022,12,09,03,19,0.00
2022,12,09,03,20,0.00
2022,12,09,03,21,0.00
2022,12,09,03,22,0.00
2022,12,09,03,23,0.00
2022,12,09,03,24,0.00
2022,12,09,03,25,0.00
2022,12,09,03,26,0.00
2022,12,09,03,27,0.00
2022,12,09,03,28,0.00
2022,12,09,03,29,0.00
2022,12,09,03,30,0.00
2022,12,09,03,31,0.00
2022,12,09,03,32,0.00
2022,12,09,03,33,0.00
2022,12,09,03,34,0.00
2022,12,09,03,35,0.00
2022,12,09,03,36,0.00
2022,12,09,03,37,0.00
2022,12,09,03,38,0.00
2022,12,09,03,39,0.00
2022,12,09,03,40,0.00
2022,12,09,03,41,0.00
2022,12,09,03,42,0.00
2022,12,09,03,43,0.00
2022,12,09,03,44,0.00
2022,12,09,03,45,0.00
2022,12,09,03,46,0.00
2022,12,09,03,47,0.00
2022,12,09,03,48,0.00
2022,12,09,03,49,0.00
2022,12,09,03,50,0.00
2022,12,09,03,51,0.00
2022,12,09,03,52,0.00
2022,12,09,03,53,0.00
2022,12,09,03,54,0.00
2022,12,09,03,55,0.00
2022,12,09,03,56,0.00
2022,12,09,03,57,0.00
2022,12,09,03,58,0.00
2022,12,09,03,59,0.00
2022,12,09,04,00,0.00
2022,12,09,04,01,0.00
2022,12,09,04,02,0.00
2022,12,09,04,03,0.00
2022,12,09,04,04,0.00
2022,12,09,04,05,0.00
2022,12,09,04,06,0.00
2022,12,09,04,07,0.00
2022,12,09,04,08,0.00
2022,12,09,04,09,0.00
2022,12,09,04,10,0.00
2022,12,09,04,11,0.00
2022,12,09,04,12,0.00
2022,12,09,04,13,0.00
2022,12,09,04,14,0.00
2022,12,09,04,15,0.00
2022,12,09,04,16,0.00
2022,12,09,04,17,0.00
2022,12,09,04,18,0.00
2022,12,09,04,19,0.00
2022,12,09,04,20,0.00
2022,12,09,04,21,0.00
2022,12,09,04,22,0.00
2022,12,09,04,23,0.00
2022,12,09,04,24,0.00
2022,12,09,04,25,0.00
2022,12,09,04,26,0.00
2022,12,09,04,27,0.00
2022,12,09,04,28,0.00
2022,12,09,04,29,0.00
2022,12,09,04,30,0.00
2022,12,09,04,31,0.00
2022,12,09,04,32,0.00
2022,12,09,04,33,0.00
2022,12,09,04,34,0.00
2022,12,09,04,35,0.00
2022,12,09,04,36,0.00
2022,12,09,04,37,0.00
2022,12,09,04,38,0.00
2022,12,09,04,39,0.00
2022,12,09,04,40,0.00
2022,12,09,04,41,0.00
2022,12,09,04,42,0.00
2022,12,09,04,43,0.00
2022,12,09,04,44,0.00
2022,12,09,04,45,0.00
2022,12,09,04,46,0.00
2022,12,09,04,47,0.00
2022,12,09,04,48,0.00
2022,12,09,04,49,0.00
2022,12,09,04,50,0.00
2022,12,09,04,51,0.00
2022,12,09,04,52,0.00
2022,12,09,04,53,0.00
2022,12,09,04,54,0.00
2022,12,09,04,55,0.00
2022,12,09,04,56,0.00
2022,12,09,04,57,0.00
2022,12,09,04,58,0.00
2022,12,09,04,59,0.00
2022,12,09,05,00,0.00
2022,12,09,05,01,0.00
2022,12,09,05,02,0.00
2022,12,09,05,03,0.00
2022,12,09,05,04,0.00
2022,12,09,05,05,0.00
2022,12,09,05,06,0.00
2022,12,09,05,07,0.00
2022,12,09,05,08,0.00
2022,12,09,05,09,0.00
2022,12,09,05,10,0.00
2022,12,09,05,11,0.00
2022,12,09,05,12,0.00
2022,12,09,05,13,0.00
2022,12,09,05,14,0.00
2022,12,09,05,15,0.00
2022,12,09,05,16,0.00
2022,12,09,05,17,0.00
2022,12,09,05,18,0.00
2022,12,09,05,19,0.00
2022,12,09,05,20,0.00
2022,12,09,05,21,0.00
2022,12,09,05,22,0.00
2022,12,09,05,23,1.00
2022,12,09,05,24,2.00
2022,12,09,05,25,5.70
2022,12,09,05,26,3.80
2022,12,09,05,27,4.60
2022,12,09,05,28,0.20
2022,12,09,05,29,0.40
2022,12,09,05,30,1.00
2022,12,09,05,31,2.60
2022,12,09,05,32,0.00
2022,12,09,05,33,0.00
2022,12,09,05,34,0.00
2022,12,09,05,35,0.00
2022,12,09,05,36,0.00
2022,12,09,05,37,0.00
2022,12,09,05,38,0.00
2022,12,09,05,39,0.00
2022,12,09,05,40,4.10
2022,12,09,05,41,2.40
2022,12,09,05,42,0.20
2022,12,09,05,43,1.80
2022,12,09,05,44,2.80
2022,12,09,05,45,2.20
2022,12,09,05,46,0.10
2022,12,09,05,47,0.00
2022,12,09,05,48,0.00
2022,12,09,05,49,0.00
2022,12,09,05,50,0.00
2022,12,09,05,51,0.00
2022,12,09,05,52,1.50
2022,12,09,05,53,0.00
2022,12,09,05,54,0.00
2022,12,09,05,55,2.30
2022,12,09,05,56,3.40
2022,12,09,05,57,0.70
2022,12,09,05,58,0.00
2022,12,09,05,59,0.00
2022,12,09,06,00,0.00
2022,12,09,06,01,0.00
2022,12,09,06,02,1.70
2022,12,09,06,03,2.90
2022,12,09,06,04,0.10
2022,12,09,06,05,0.00
2022,12,09,06,06,0.90
2022,12,09,06,07,0.00
2022,12,09,06,08,0.80
2022,12,09,06,09,1.20
2022,12,09,06,10,1.30
2022,12,09,06,11,1.70
2022,12,09,06,12,0.00
2022,12,09,06,13,0.00
2022,12,09,06,14,0.00
2022,12,09,06,15,0.00
2022,12,09,06,16,0.00
2022,12,09,06,17,0.00
2022,12,09,06,18,0.70
2022,12,09,06,19,2.00
2022,12,09,06,20,0.40
2022,12,09,06,21,2.60
2022,12,09,06,22,0.50
2022,12,09,06,23,0.00
2022,12,09,06,24,0.00
2022,12,09,06,25,0.00
2022,12,09,06,26,0.00
2022,12,09,06,27,0.00
2022,12,09,06,28,0.00
2022,12,09,06,29,0.00
2022,12,09,06,30,0.00
2022,12,09,06,31,0.00
2022,12,09,06,32,0.00
2022,12,09,06,33,0.00
2022,12,09,06,34,0.00
2022,12,09,06,35,0.00
2022,12,09,06,36,0.00
2022,12,09,06,37,0.00
2022,12,09,06,38,0.00
2022,12,09,06,39,0.00
2022,12,09,06,40,0.00
2022,12,09,06,41,0.00
2022,12,09,06,42,0.00
2022,12,09,06,43,0.00
2022,12,09,06,44,0.00
2022,12,09,06,45,0.00
2022,12,09,06,46,0.00
2022,12,09,06,47,0.00
2022,12,09,06,48,0.00
2022,12,09,06,49,0.00
2022,12,09,06,50,0.00
2022,12,09,06,51,0.00
2022,12,09,06,52,0.00
2022,12,09,06,53,0.00
2022,12,09,06,54,0.00
2022,12,09,06,55,0.00
2022,12,09,06,56,0.00
2022,12,09,06,57,0.00
2022,12,09,06,58,0.00
2022,12,09,06,59,0.00
2022,12,09,07,00,0.00
2022,12,09,07,01,0.00
2022,12,09,07,02,0.00
2022,12,09,07,03,0.00
2022,12,09,07,04,0.00
2022,12,09,07,05,0.00
2022,12,09,07,06,0.00
2022,12,09,07,07,0.00
2022,12,09,07,08,0.00
2022,12,09,07,09,0.00
2022,12,09,07,10,0.00
2022,12,09,07,11,0.00
2022,12,09,07,12,0.00
2022,12,09,07,13,0.00
2022,12,09,07,14,0.00
2022,12,09,07,15,0.00
2022,12,09,07,16,0.00
2022,12,09,07,17,0.00
2022,12,09,07,18,0.00
2022,12,09,07,19,0.00
2022,12,09,07,20,0.00
2022,12,09,07,21,0.00
2022,12,09,07,22,0.00
2022,12,09,07,23,3.40
2022,12,09,07,24,5.50
2022,12,09,07,25,3.00
2022,12,09,07,26,1.00
2022,12,09,07,27,0.00
2022,12,09,07,28,0.00
2022,12,09,07,29,0.50
2022,12,09,07,30,0.60
2022,12,09,07,31,0.00
2022,12,09,07,32,0.00
2022,12,09,07,33,0.00
2022,12,09,07,34,0.00
2022,12,09,07,35,0.00
2022,12,09,07,36,0.00
2022,12,09,07,37,1.20
2022,12,09,07,38,0.00
2022,12,09,07,39,0.00
2022,12,09,07,40,0.10
2022,12,09,07,41,3.00
2022,12,09,07,42,3.70
2022,12,09,07,43,2.10
2022,12,09,07,44,1.70
2022,12,09,07,45,0.00
2022,12,09,07,46,3.00
2022,12,09,07,47,0.50
2022,12,09,07,48,0.00
2022,12,09,07,49,0.50
2022,12,09,07,50,4.30
2022,12,09,07,51,4.80
2022,12,09,07,52,3.40
2022,12,09,07,53,3.00
2022,12,09,07,54,5.70
2022,12,09,07,55,8.90
2022,12,09,07,56,5.30
2022,12,09,07,57,5.20
2022,12,09,07,58,4.50
2022,12,09,07,59,3.20
2022,12,09,08,00,3.80
2022,12,09,08,01,2.20
2022,12,09,08,02,5.80
2022,12,09,08,03,8.50
2022,12,09,08,04,5.60
2022,12,09,08,05,4.50
2022,12,09,08,06,5.50
2022,12,09,08,07,4.50
2022,12,09,08,08,0.60
2022,12,09,08,09,0.10
2022,12,09,08,10,6.20
2022,12,09,08,11,4.40
2022,12,09,08,12,3.90
2022,12,09,08,13,6.00
2022,12,09,08,14,5.40
2022,12,09,08,15,3.70
2022,12,09,08,16,0.80
2022,12,09,08,17,3.80
2022,12,09,08,18,4.90
2022,12,09,08,19,3.30
2022,12,09,08,20,5.30
2022,12,09,08,21,3.60
2022,12,09,08,22,3.40
2022,12,09,08,23,6.30
2022,12,09,08,24,4.50
2022,12,09,08,25,2.80
2022,12,09,08,26,4.50
2022,12,09,08,27,2.80
2022,12,09,08,28,3.00
2022,12,09,08,29,0.30
2022,12,09,08,30,0.00
2022,12,09,08,31,0.00
2022,12,09,08,32,0.00
2022,12,09,08,33,0.00
2022,12,09,08,34,1.70
2022,12,09,08,35,4.00
2022,12,09,08,36,4.50
2022,12,09,08,37,1.80
2022,12,09,08,38,0.60
2022,12,09,08,39,4.80
2022,12,09,08,40,4.00
2022,12,09,08,41,4.10
2022,12,09,08,42,7.00
2022,12,09,08,43,6.50
2022,12,09,08,44,5.90
2022,12,09,08,45,6.50
2022,12,09,08,46,6.30
2022,12,09,08,47,4.10
2022,12,09,08,48,6.90
2022,12,09,08,49,5.00
2022,12,09,08,50,4.50
2022,12,09,08,51,6.30
2022,12,09,08,52,6.80
2022,12,09,08,53,2.40
2022,12,09,08,54,1.20
2022,12,09,08,55,3.30
2022,12,09,08,56,1.90
2022,12,09,08,57,4.20
2022,12,09,08,58,2.00
2022,12,09,08,59,0.40
2022,12,09,09,00,0.00
2022,12,09,09,01,0.00
2022,12,09,09,02,0.00
2022,12,09,09,03,0.00
2022,12,09,09,04,0.00
2022,12,09,09,05,0.10
2022,12,09,09,06,0.00
2022,12,09,09,07,0.00
2022,12,09,09,08,0.00
2022,12,09,09,09,0.80
2022,12,09,09,10,1.10
2022,12,09,09,11,0.00
2022,12,09,09,12,0.00
2022,12,09,09,13,0.00
2022,12,09,09,14,0.00
2022,12,09,09,15,0.00
2022,12,09,09,16,0.00
2022,12,09,09,17,0.00
2022,12,09,09,18,0.00
2022,12,09,09,19,0.00
2022,12,09,09,20,0.00
2022,12,09,09,21,0.00
2022,12,09,09,22,0.00
2022,12,09,09,23,0.00
2022,12,09,09,24,0.00
2022,12,09,09,25,0.00
2022,12,09,09,26,0.00
2022,12,09,09,27,0.00
2022,12,09,09,28,0.00
2022,12,09,09,29,0.00
2022,12,09,09,30,0.00
2022,12,09,09,31,0.00
2022,12,09,09,32,0.00
2022,12,09,09,33,0.00
2022,12,09,09,34,0.00
2022,12,09,09,35,0.00
2022,12,09,09,36,0.00
2022,12,09,09,37,0.00
2022,12,09,09,38,0.00
2022,12,09,09,39,0.00
2022,12,09,09,40,0.00
2022,12,09,09,41,0.00
2022,12,09,09,42,0.00
2022,12,09,09,43,0.00
2022,12,09,09,44,0.00
2022,12,09,09,45,0.00
2022,12,09,09,46,0.00
2022,12,09,09,47,0.00
2022,12,09,09,48,0.00
2022,12,09,09,49,3.00
2022,12,09,09,50,4.40
2022,12,09,09,51,7.10
2022,12,09,09,52,4.00
2022,12,09,09,53,3.80
2022,12,09,09,54,7.30
2022,12,09,09,55,4.90
2022,12,09,09,56,5.80
2022,12,09,09,57,3.70
2022,12,09,09,58,7.80
2022,12,09,09,59,5.80
2022,12,09,10,00,5.80
2022,12,09,10,01,8.00
2022,12,09,10,02,4.30
2022,12,09,10,03,4.70
2022,12,09,10,04,5.60
2022,12,09,10,05,4.00
2022,12,09,10,06,8.60
2022,12,09,10,07,5.40
2022,12,09,10,08,5.10
2022,12,09,10,09,4.20
2022,12,09,10,10,9.50
2022,12,09,10,11,8.80
2022,12,09,10,12,10.00
2022,12,09,10,13,11.20
2022,12,09,10,14,12.90
2022,12,09,10,15,6.20
2022,12,09,10,16,7.60
2022,12,09,10,17,8.70
2022,12,09,10,18,8.50
2022,12,09,10,19,5.30
2022,12,09,10,20,6.60
2022,12,09,10,21,6.00
2022,12,09,10,22,2.70
2022,12,09,10,23,4.60
2022,12,09,10,24,4.90
2022,12,09,10,25,5.10
2022,12,09,10,26,4.60
2022,12,09,10,27,3.70
2022,12,09,10,28,6.40
2022,12,09,10,29,5.70
2022,12,09,10,30,7.40
2022,12,09,10,31,8.40
2022,12,09,10,32,9.00
2022,12,09,10,33,7.00
2022,12,09,10,34,4.70
2022,12,09,10,35,4.00
2022,12,09,10,36,5.10
2022,12,09,10,37,8.00
2022,12,09,10,38,10.10
2022,12,09,10,39,9.00
2022,12,09,10,40,8.80
2022,12,09,10,41,10.40
2022,12,09,10,42,10.00
2022,12,09,10,43,7.40
2022,12,09,10,44,9.80
2022,12,09,10,45,9.80
2022,12,09,10,46,10.60
2022,12,09,10,47,8.20
2022,12,09,10,48,9.40
2022,12,09,10,49,7.20
2022,12,09,10,50,8.20
2022,12,09,10,51,9.50
2022,12,09,10,52,9.30
2022,12,09,10,53,7.60
2022,12,09,10,54,7.00
2022,12,09,10,55,6.80
2022,12,09,10,56,9.70
2022,12,09,10,57,6.80
2022,12,09,10,58,9.80
2022,12,09,10,59,7.00
2022,12,09,11,00,11.10
2022,12,09,11,01,8.40
2022,12,09,11,02,12.20
2022,12,09,11,03,7.10
2022,12,09,11,04,7.90
2022,12,09,11,05,11.20
2022,12,09,11,06,9.80
2022,12,09,11,07,13.10
2022,12,09,11,08,11.30
2022,12,09,11,09,6.70
2022,12,09,11,10,8.20
2022,12,09,11,11,4.20
2022,12,09,11,12,3.80
2022,12,09,11,13,6.30
2022,12,09,11,14,6.90
2022,12,09,11,15,11.70
2022,12,09,11,16,15.10
2022,12,09,11,17,11.00
2022,12,09,11,18,10.50
2022,12,09,11,19,12.70
2022,12,09,11,20,8.80
2022,12,09,11,21,9.00
2022,12,09,11,22,6.90
2022,12,09,11,23,9.80
2022,12,09,11,24,7.20
2022,12,09,11,25,7.60
2022,12,09,11,26,9.50
2022,12,09,11,27,10.70
2022,12,09,11,28,12.10
2022,12,09,11,29,13.10
2022,12,09,11,30,12.10
2022,12,09,11,31,8.50
2022,12,09,11,32,5.40
2022,12,09,11,33,8.20
2022,12,09,11,34,7.40
2022,12,09,11,35,6.90
2022,12,09,11,36,7.80
2022,12,09,11,37,5.00
2022,12,09,11,38,8.20
2022,12,09,11,39,6.50
2022,12,09,11,40,3.90
2022,12,09,11,41,8.30
2022,12,09,11,42,8.50
2022,12,09,11,43,11.50
2022,12,09,11,44,8.10
2022,12,09,11,45,10.60
2022,12,09,11,46,9.30
2022,12,09,11,47,9.70
2022,12,09,11,48,6.80
2022,12,09,11,49,8.90
2022,12,09,11,50,12.50
2022,12,09,11,51,11.10
2022,12,09,11,52,5.20
2022,12,09,11,53,8.90
2022,12,09,11,54,6.40
2022,12,09,11,55,10.10
2022,12,09,11,56,6.30
2022,12,09,11,57,5.10
2022,12,09,11,58,8.60
2022,12,09,11,59,8.60
2022,12,09,12,00,6.70
2022,12,09,12,01,8.20
2022,12,09,12,02,13.20
2022,12,09,12,03,9.90
2022,12,09,12,04,13.50
2022,12,09,12,05,9.00
2022,12,09,12,06,5.70
2022,12,09,12,07,6.80
2022,12,09,12,08,7.50
2022,12,09,12,09,7.30
2022,12,09,12,10,7.20
2022,12,09,12,11,10.90
2022,12,09,12,12,5.30
2022,12,09,12,13,6.40
2022,12,09,12,14,5.20
2022,12,09,12,15,8.80
2022,12,09,12,16,7.00
2022,12,09,12,17,8.80
2022,12,09,12,18,8.40
2022,12,09,12,19,7.50
2022,12,09,12,20,9.00
2022,12,09,12,21,8.00
2022,12,09,12,22,9.00
2022,12,09,12,23,15.40
2022,12,09,12,24,13.60
2022,12,09,12,25,7.90
2022,12,09,12,26,9.00
2022,12,09,12,27,10.20
2022,12,09,12,28,8.00
2022,12,09,12,29,7.10
2022,12,09,12,30,8.50
2022,12,09,12,31,11.40
2022,12,09,12,32,7.90
2022,12,09,12,33,8.80
2022,12,09,12,34,8.10
2022,12,09,12,35,8.00
2022,12,09,12,36,8.20
2022,12,09,12,37,11.20
2022,12,09,12,38,13.40
2022,12,09,12,39,7.70
2022,12,09,12,40,9.40
2022,12,09,12,41,8.20
2022,12,09,12,42,6.80
2022,12,09,12,43,5.90
2022,12,09,12,44,8.20
2022,12,09,12,45,6.30
2022,12,09,12,46,4.10
2022,12,09,12,47,7.80
2022,12,09,12,48,6.50
2022,12,09,12,49,8.10
2022,12,09,12,50,10.10
2022,12,09,12,51,10.60
2022,12,09,12,52,13.60
2022,12,09,12,53,11.90
2022,12,09,12,54,13.20
2022,12,09,12,55,12.90
2022,12,09,12,56,12.40
2022,12,09,12,57,9.80
2022,12,09,12,58,11.20
2022,12,09,12,59,12.00
2022,12,09,13,00,7.50
2022,12,09,13,01,11.80
2022,12,09,13,02,8.50
2022,12,09,13,03,8.70
2022,12,09,13,04,8.50
2022,12,09,13,05,8.60
2022,12,09,13,06,5.70
2022,12,09,13,07,8.60
2022,12,09,13,08,6.60
2022,12,09,13,09,8.70
2022,12,09,13,10,11.10
2022,12,09,13,11,8.60
2022,12,09,13,12,9.10
2022,12,09,13,13,11.10
2022,12,09,13,14,9.90
2022,12,09,13,15,8.10
2022,12,09,13,16,12.80
2022,12,09,13,17,8.90
2022,12,09,13,18,10.10
2022,12,09,13,19,11.90
2022,12,09,13,20,13.00
2022,12,09,13,21,14.20
2022,12,09,13,22,13.20
2022,12,09,13,23,11.70
2022,12,09,13,24,11.70
2022,12,09,13,25,10.80
2022,12,09,13,26,10.00
2022,12,09,13,27,7.90
2022,12,09,13,28,10.90
2022,12,09,13,29,10.40
2022,12,09,13,30,11.00
2022,12,09,13,31,10.80
2022,12,09,13,32,9.10
2022,12,09,13,33,10.60
2022,12,09,13,34,10.10
2022,12,09,13,35,14.40
2022,12,09,13,36,10.90
2022,12,09,13,37,10.50
2022,12,09,13,38,15.60
2022,12,09,13,39,15.50
2022,12,09,13,40,12.90
2022,12,09,13,41,14.70
2022,12,09,13,42,13.90
2022,12,09,13,43,14.90
2022,12,09,13,44,13.10
2022,12,09,13,45,10.90
2022,12,09,13,46,11.40
2022,12,09,13,47,11.80
2022,12,09,13,48,10.60
2022,12,09,13,49,12.30
2022,12,09,13,50,12.40
2022,12,09,13,51,13.70
2022,12,09,13,52,13.50
2022,12,09,13,53,12.90
2022,12,09,13,54,11.20
2022,12,09,13,55,10.40
2022,12,09,13,56,10.40
2022,12,09,13,57,12.50
2022,12,09,13,58,14.70
2022,12,09,13,59,11.40
2022,12,09,14,00,11.00
2022,12,09,14,01,16.50
2022,12,09,14,02,15.60
2022,12,09,14,03,19.50
2022,12,09,14,04,16.70
2022,12,09,14,05,15.00
2022,12,09,14,06,14.90
2022,12,09,14,07,16.40
2022,12,09,14,08,17.10
2022,12,09,14,09,16.10
2022,12,09,14,10,17.60
2022,12,09,14,11,17.50
2022,12,09,14,12,15.60
2022,12,09,14,13,14.30
2022,12,09,14,14,16.90
2022,12,09,14,15,21.60
2022,12,09,14,16,17.80
2022,12,09,14,17,15.00
2022,12,09,14,18,20.60
2022,12,09,14,19,18.70
2022,12,09,14,20,19.40
2022,12,09,14,21,18.30
2022,12,09,14,22,22.60
2022,12,09,14,23,16.80
2022,12,09,14,24,15.30
2022,12,09,14,25,21.30
2022,12,09,14,26,16.50
2022,12,09,14,27,16.70
2022,12,09,14,28,17.60
2022,12,09,14,29,19.50
2022,12,09,14,30,15.90
2022,12,09,14,31,12.80
2022,12,09,14,32,15.30
2022,12,09,14,33,19.00
2022,12,09,14,34,16.40
2022,12,09,14,35,17.20
2022,12,09,14,36,19.10
2022,12,09,14,37,21.20
2022,12,09,14,38,19.80
2022,12,09,14,39,21.70
2022,12,09,14,40,20.60
2022,12,09,14,41,16.70
2022,12,09,14,42,15.40
2022,12,09,14,43,22.60
2022,12,09,14,44,20.90
2022,12,09,14,45,17.90
2022,12,09,14,46,21.20
2022,12,09,14,47,22.90
2022,12,09,14,48,21.00
2022,12,09,14,49,28.10
2022,12,09,14,50,24.00
2022,12,09,14,51,26.00
2022,12,09,14,52,24.70
2022,12,09,14,53,27.40
2022,12,09,14,54,21.10
2022,12,09,14,55,21.30
2022,12,09,14,56,21.90
2022,12,09,14,57,21.10
2022,12,09,14,58,24.30
2022,12,09,14,59,21.50
2022,12,09,15,00,23.80
2022,12,09,15,01,19.90
2022,12,09,15,02,23.00
2022,12,09,15,03,22.20
2022,12,09,15,04,18.80
2022,12,09,15,05,21.90
2022,12,09,15,06,21.90
2022,12,09,15,07,24.00
2022,12,09,15,08,19.80
2022,12,09,15,09,24.10
2022,12,09,15,10,24.20
2022,12,09,15,11,25.00
2022,12,09,15,12,25.50
2022,12,09,15,13,25.60
2022,12,09,15,14,21.70
2022,12,09,15,15,18.40
2022,12,09,15,16,22.60
2022,12,09,15,17,24.70
2022,12,09,15,18,26.80
2022,12,09,15,19,23.50
2022,12,09,15,20,26.00
2022,12,09,15,21,23.20
2022,12,09,15,22,22.90
2022,12,09,15,23,25.20
2022,12,09,15,24,27.00
2022,12,09,15,25,24.10
2022,12,09,15,26,21.20
2022,12,09,15,27,22.40
2022,12,09,15,28,19.80
2022,12,09,15,29,23.30
2022,12,09,15,30,24.50
2022,12,09,15,31,24.70
2022,12,09,15,32,15.90
2022,12,09,15,33,15.30
2022,12,09,15,34,16.70
2022,12,09,15,35,15.40
2022,12,09,15,36,15.90
2022,12,09,15,37,14.80
2022,12,09,15,38,12.40
2022,12,09,15,39,12.80
2022,12,09,15,40,17.60
2022,12,09,15,41,17.00
2022,12,09,15,42,14.40
2022,12,09,15,43,13.90
2022,12,09,15,44,15.30
2022,12,09,15,45,20.90
2022,12,09,15,46,19.30
2022,12,09,15,47,17.00
2022,12,09,15,48,15.80
2022,12,09,15,49,16.30
2022,12,09,15,50,14.50
2022,12,09,15,51,16.40
2022,12,09,15,52,14.50
2022,12,09,15,53,16.00
2022,12,09,15,54,17.20
2022,12,09,15,55,16.10
2022,12,09,15,56,16.10
2022,12,09,15,57,16.70
2022,12,09,15,58,12.30
2022,12,09,15,59,11.20
2022,12,09,16,00,15.10
2022,12,09,16,01,15.10
2022,12,09,16,02,17.70
2022,12,09,16,03,15.10
2022,12,09,16,04,14.70
2022,12,09,16,05,14.40
2022,12,09,16,06,14.90
2022,12,09,16,07,16.30
2022,12,09,16,08,12.60
2022,12,09,16,09,13.70
2022,12,09,16,10,16.00
2022,12,09,16,11,14.60
2022,12,09,16,12,13.00
2022,12,09,16,13,13.60
2022,12,09,16,14,11.60
2022,12,09,16,15,12.40
2022,12,09,16,16,12.30
2022,12,09,16,17,11.00
2022,12,09,16,18,12.30
2022,12,09,16,19,12.10
2022,12,09,16,20,13.30
2022,12,09,16,21,9.50
2022,12,09,16,22,8.40
2022,12,09,16,23,12.60
2022,12,09,16,24,11.40
2022,12,09,16,25,11.40
2022,12,09,16,26,9.10
2022,12,09,16,27,10.40
2022,12,09,16,28,8.90
2022,12,09,16,29,10.80
2022,12,09,16,30,10.10
2022,12,09,16,31,10.70
2022,12,09,16,32,10.00
2022,12,09,16,33,8.90
2022,12,09,16,34,12.70
2022,12,09,16,35,8.80
2022,12,09,16,36,8.30
2022,12,09,16,37,10.60
2022,12,09,16,38,12.00
2022,12,09,16,39,12.50
2022,12,09,16,40,10.20
2022,12,09,16,41,13.50
2022,12,09,16,42,12.20
2022,12,09,16,43,9.30
2022,12,09,16,44,13.00
2022,12,09,16,45,11.70
2022,12,09,16,46,11.00
2022,12,09,16,47,9.30
2022,12,09,16,48,10.50
2022,12,09,16,49,8.80
2022,12,09,16,50,8.70
2022,12,09,16,51,10.50
2022,12,09,16,52,9.40
2022,12,09,16,53,9.70
2022,12,09,16,54,9.70
2022,12,09,16,55,9.50
2022,12,09,16,56,9.40
2022,12,09,16,57,8.70
2022,12,09,16,58,8.90
2022,12,09,16,59,10.00
2022,12,09,17,00,12.00
2022,12,09,17,01,12.50
2022,12,09,17,02,11.20
2022,12,09,17,03,10.50
2022,12,09,17,04,9.50
2022,12,09,17,05,10.00
2022,12,09,17,06,9.90
2022,12,09,17,07,10.40
2022,12,09,17,08,8.70
2022,12,09,17,09,9.80
2022,12,09,17,10,11.90
2022,12,09,17,11,9.30
2022,12,09,17,12,11.80
2022,12,09,17,13,12.70
2022,12,09,17,14,10.20
2022,12,09,17,15,9.90
2022,12,09,17,16,9.60
2022,12,09,17,17,11.10
2022,12,09,17,18,12.30
2022,12,09,17,19,12.10
2022,12,09,17,20,10.30
2022,12,09,17,21,11.20
2022,12,09,17,22,13.80
2022,12,09,17,23,14.80
2022,12,09,17,24,11.60
2022,12,09,17,25,14.00
2022,12,09,17,26,11.20
2022,12,09,17,27,14.90
2022,12,09,17,28,15.80
2022,12,09,17,29,12.60
2022,12,09,17,30,11.70
2022,12,09,17,31,14.10
2022,12,09,17,32,13.70
2022,12,09,17,33,14.70
2022,12,09,17,34,12.20
2022,12,09,17,35,12.80
2022,12,09,17,36,15.10
2022,12,09,17,37,13.80
2022,12,09,17,38,15.20
2022,12,09,17,39,13.70
2022,12,09,17,40,13.90
2022,12,09,17,41,14.30
2022,12,09,17,42,14.40
2022,12,09,17,43,18.30
2022,12,09,17,44,13.60
2022,12,09,17,45,10.90
2022,12,09,17,46,15.50
2022,12,09,17,47,15.20
2022,12,09,17,48,14.50
2022,12,09,17,49,13.90
2022,12,09,17,50,15.40
2022,12,09,17,51,14.40
2022,12,09,17,52,15.00
2022,12,09,17,53,14.10